Time,TemperatureF,DewpointF,PressureIn,WindDirection,WindDirectionDegrees,WindSpeedMPH,WindSpeedGustMPH,Humidity,HourlyPrecipIn,Conditions,Clouds,dailyrainin,SoftwareType,DateUTC
2013-05-06 00:05:00,56.0,49.2,29.47,West,263,1.0,1.0,78,0.00,,,0.00,Wunderground v.1.15,2013-05-06 07:05:00,
2013-05-06 00:16:00,55.4,49.0,29.49,WSW,247,0.0,1.0,79,0.00,,,0.00,Wunderground v.1.15,2013-05-06 07:16:00,
2013-05-06 00:17:00,56.0,49.2,29.48,West,263,0.0,0.0,78,0.00,,,0.00,Wunderground v.1.15,2013-05-06 07:17:00,
2013-05-06 00:27:00,55.9,49.1,29.48,WNW,285,1.0,1.0,78,0.00,,,0.00,Wunderground v.1.15,2013-05-06 07:27:00,
2013-05-06 00:30:00,55.4,49.3,29.48,WSW,248,0.0,0.0,80,0.00,,,0.00,Wunderground v.1.15,2013-05-06 07:30:00,
2013-05-06 00:33:00,55.7,49.3,29.48,WSW,242,0.0,0.0,79,0.00,,,0.00,Wunderground v.1.15,2013-05-06 07:33:00,
2013-05-06 00:39:00,55.7,49.3,29.48,West,273,1.0,3.0,79,0.00,,,0.00,Wunderground v.1.15,2013-05-06 07:39:00,
2013-05-06 00:45:00,55.6,49.2,29.48,WSW,253,0.0,1.0,79,0.00,,,0.00,Wunderground v.1.15,2013-05-06 07:45:00,
2013-05-06 00:48:00,55.4,49.3,29.48,WSW,253,1.0,1.0,80,0.00,,,0.00,Wunderground v.1.15,2013-05-06 07:48:00,
2013-05-06 00:51:00,55.6,49.2,29.48,WSW,253,0.0,1.0,79,0.00,,,0.00,Wunderground v.1.15,2013-05-06 07:51:00,
2013-05-06 00:57:00,55.6,49.2,29.48,WSW,247,0.0,1.0,79,0.00,,,0.00,Wunderground v.1.15,2013-05-06 07:57:00,
2013-05-06 01:00:00,55.4,49.3,29.49,WSW,247,1.0,1.0,80,0.00,,,0.00,Wunderground v.1.15,2013-05-06 08:00:00,
2013-05-06 01:03:00,55.4,49.0,29.49,WSW,247,0.0,0.0,79,0.00,,,0.00,Wunderground v.1.15,2013-05-06 08:03:00,
2013-05-06 01:11:00,55.4,49.0,29.48,WSW,247,0.0,1.0,79,0.00,,,0.00,Wunderground v.1.15,2013-05-06 08:11:00,
2013-05-06 01:17:00,55.4,49.0,29.48,WSW,248,0.0,0.0,79,0.00,,,0.00,Wunderground v.1.15,2013-05-06 08:17:00,
2013-05-06 01:20:00,55.7,49.3,29.49,West,279,1.0,1.0,79,0.00,,,0.00,Wunderground v.1.15,2013-05-06 08:20:00,
2013-05-06 01:25:00,55.4,49.3,29.48,West,273,0.0,0.0,80,0.00,,,0.00,Wunderground v.1.15,2013-05-06 08:25:00,
2013-05-06 01:31:00,55.4,49.3,29.48,West,268,1.0,1.0,80,0.00,,,0.00,Wunderground v.1.15,2013-05-06 08:31:00,
2013-05-06 01:37:00,55.4,49.3,29.49,WSW,253,1.0,1.0,80,0.00,,,0.00,Wunderground v.1.15,2013-05-06 08:37:00,
2013-05-06 01:43:00,55.4,49.3,29.49,WSW,253,0.0,0.0,80,0.00,,,0.00,Wunderground v.1.15,2013-05-06 08:43:00,
2013-05-06 01:49:00,55.4,49.3,29.49,WNW,292,1.0,2.0,80,0.00,,,0.00,Wunderground v.1.15,2013-05-06 08:49:00,
2013-05-06 01:55:00,55.4,49.3,29.48,WSW,254,1.0,4.0,80,0.00,,,0.00,Wunderground v.1.15,2013-05-06 08:55:00,
2013-05-06 02:01:00,55.6,49.2,29.48,WNW,283,2.0,4.0,79,0.00,,,0.00,Wunderground v.1.15,2013-05-06 09:01:00,
2013-05-06 02:07:00,55.6,49.2,29.48,WNW,285,2.0,3.0,79,0.00,,,0.00,Wunderground v.1.15,2013-05-06 09:07:00,
2013-05-06 02:15:00,55.7,49.3,29.49,West,261,1.0,1.0,79,0.00,,,0.00,Wunderground v.1.15,2013-05-06 09:15:00,
2013-05-06 02:21:00,55.6,49.2,29.48,WNW,294,1.0,2.0,79,0.00,,,0.00,Wunderground v.1.15,2013-05-06 09:21:00,
2013-05-06 02:27:00,55.6,49.2,29.48,WNW,294,1.0,2.0,79,0.00,,,0.00,Wunderground v.1.15,2013-05-06 09:27:00,
2013-05-06 02:33:00,55.6,49.5,29.48,WNW,294,0.0,0.0,80,0.00,,,0.00,Wunderground v.1.15,2013-05-06 09:33:00,
2013-05-06 02:39:00,55.6,49.5,29.48,SW,215,1.0,1.0,80,0.00,,,0.00,Wunderground v.1.15,2013-05-06 09:39:00,
2013-05-06 02:45:00,55.4,49.3,29.48,West,279,1.0,3.0,80,0.00,,,0.00,Wunderground v.1.15,2013-05-06 09:45:00,
2013-05-06 02:51:00,55.4,49.3,29.48,West,279,1.0,3.0,80,0.00,,,0.00,Wunderground v.1.15,2013-05-06 09:51:00,
2013-05-06 02:57:00,55.3,49.2,29.48,West,279,0.0,1.0,80,0.00,,,0.00,Wunderground v.1.15,2013-05-06 09:57:00,
2013-05-06 03:03:00,55.3,49.6,29.48,West,279,0.0,0.0,81,0.00,,,0.00,Wunderground v.1.15,2013-05-06 10:03:00,
2013-05-06 03:09:00,55.3,49.6,29.48,West,279,0.0,0.0,81,0.00,,,0.00,Wunderground v.1.15,2013-05-06 10:09:00,
2013-05-06 03:15:00,55.1,49.4,29.48,West,279,0.0,0.0,81,0.00,,,0.00,Wunderground v.1.15,2013-05-06 10:15:00,
2013-05-06 03:21:00,55.1,49.4,29.48,West,279,0.0,0.0,81,0.00,,,0.00,Wunderground v.1.15,2013-05-06 10:21:00,
2013-05-06 03:27:00,55.1,49.4,29.48,West,279,0.0,0.0,81,0.00,,,0.00,Wunderground v.1.15,2013-05-06 10:27:00,
2013-05-06 03:33:00,55.1,49.4,29.48,West,279,0.0,0.0,81,0.00,,,0.00,Wunderground v.1.15,2013-05-06 10:33:00,
2013-05-06 03:39:00,54.8,49.1,29.48,West,279,0.0,0.0,81,0.00,,,0.00,Wunderground v.1.15,2013-05-06 10:39:00,
2013-05-06 03:45:00,54.7,49.0,29.48,West,279,0.0,0.0,81,0.00,,,0.00,Wunderground v.1.15,2013-05-06 10:45:00,
2013-05-06 03:51:00,54.4,48.7,29.48,West,279,0.0,0.0,81,0.00,,,0.00,Wunderground v.1.15,2013-05-06 10:51:00,
2013-05-06 03:57:00,54.1,48.7,29.48,West,279,0.0,0.0,82,0.00,,,0.00,Wunderground v.1.15,2013-05-06 10:57:00,
2013-05-06 04:03:00,53.6,48.2,29.48,West,279,0.0,0.0,82,0.00,,,0.00,Wunderground v.1.15,2013-05-06 11:03:00,
2013-05-06 04:09:00,53.3,48.3,29.48,West,279,0.0,0.0,83,0.00,,,0.00,Wunderground v.1.15,2013-05-06 11:09:00,
2013-05-06 04:15:00,52.9,47.9,29.48,West,279,0.0,0.0,83,0.00,,,0.00,Wunderground v.1.15,2013-05-06 11:15:00,
2013-05-06 04:21:00,52.5,48.1,29.48,West,279,0.0,0.0,85,0.00,,,0.00,Wunderground v.1.15,2013-05-06 11:21:00,
2013-05-06 04:27:00,52.2,47.8,29.48,West,279,0.0,0.0,85,0.00,,,0.00,Wunderground v.1.15,2013-05-06 11:27:00,
2013-05-06 04:33:00,51.9,47.5,29.48,West,279,0.0,0.0,85,0.00,,,0.00,Wunderground v.1.15,2013-05-06 11:33:00,
2013-05-06 04:39:00,51.6,47.5,29.47,West,279,0.0,0.0,86,0.00,,,0.00,Wunderground v.1.15,2013-05-06 11:39:00,
2013-05-06 04:45:00,51.3,47.3,29.47,West,279,0.0,0.0,86,0.00,,,0.00,Wunderground v.1.15,2013-05-06 11:45:00,
2013-05-06 04:51:00,51.0,47.0,29.47,West,279,0.0,0.0,86,0.00,,,0.00,Wunderground v.1.15,2013-05-06 11:51:00,
2013-05-06 04:57:00,50.5,46.5,29.48,West,279,0.0,0.0,86,0.00,,,0.00,Wunderground v.1.15,2013-05-06 11:57:00,
2013-05-06 05:03:00,50.2,46.5,29.47,West,279,0.0,0.0,87,0.00,,,0.00,Wunderground v.1.15,2013-05-06 12:03:00,
2013-05-06 05:09:00,49.8,46.4,29.47,West,279,0.0,0.0,88,0.00,,,0.00,Wunderground v.1.15,2013-05-06 12:09:00,
2013-05-06 05:15:00,49.5,46.4,29.48,West,279,0.0,0.0,89,0.00,,,0.00,Wunderground v.1.15,2013-05-06 12:15:00,
2013-05-06 05:21:00,49.2,46.1,29.48,West,279,0.0,0.0,89,0.00,,,0.00,Wunderground v.1.15,2013-05-06 12:21:00,
2013-05-06 05:27:00,48.9,45.8,29.48,West,279,0.0,0.0,89,0.00,,,0.00,Wunderground v.1.15,2013-05-06 12:27:00,
2013-05-06 05:33:00,48.6,45.5,29.48,West,279,0.0,0.0,89,0.00,,,0.00,Wunderground v.1.15,2013-05-06 12:33:00,
2013-05-06 05:39:00,48.3,45.5,29.48,West,279,0.0,0.0,90,0.00,,,0.00,Wunderground v.1.15,2013-05-06 12:39:00,
2013-05-06 05:45:00,48.0,45.2,29.48,West,279,0.0,0.0,90,0.00,,,0.00,Wunderground v.1.15,2013-05-06 12:45:00,
2013-05-06 05:51:00,47.7,44.9,29.48,West,279,0.0,0.0,90,0.00,,,0.00,Wunderground v.1.15,2013-05-06 12:51:00,
2013-05-06 05:57:00,47.4,44.6,29.48,West,279,0.0,0.0,90,0.00,,,0.00,Wunderground v.1.15,2013-05-06 12:57:00,
2013-05-06 06:03:00,47.1,44.3,29.48,West,279,0.0,0.0,90,0.00,,,0.00,Wunderground v.1.15,2013-05-06 13:03:00,
2013-05-06 06:09:00,46.8,44.3,29.48,West,279,0.0,0.0,91,0.00,,,0.00,Wunderground v.1.15,2013-05-06 13:09:00,
2013-05-06 06:15:00,46.7,44.2,29.48,West,279,0.0,0.0,91,0.00,,,0.00,Wunderground v.1.15,2013-05-06 13:15:00,
2013-05-06 06:21:00,46.7,44.2,29.48,West,279,0.0,0.0,91,0.00,,,0.00,Wunderground v.1.15,2013-05-06 13:21:00,
2013-05-06 06:27:00,46.7,44.5,29.49,West,279,0.0,0.0,92,0.00,,,0.00,Wunderground v.1.15,2013-05-06 13:27:00,
2013-05-06 06:33:00,46.7,44.5,29.49,West,279,0.0,0.0,92,0.00,,,0.00,Wunderground v.1.15,2013-05-06 13:33:00,
2013-05-06 06:39:00,46.8,44.6,29.49,West,279,0.0,0.0,92,0.00,,,0.00,Wunderground v.1.15,2013-05-06 13:39:00,
2013-05-06 06:45:00,47.0,44.8,29.49,West,279,0.0,0.0,92,0.00,,,0.00,Wunderground v.1.15,2013-05-06 13:45:00,
2013-05-06 06:51:00,47.3,45.1,29.49,West,279,0.0,0.0,92,0.00,,,0.00,Wunderground v.1.15,2013-05-06 13:51:00,
2013-05-06 06:57:00,47.6,45.7,29.49,West,279,0.0,0.0,93,0.00,,,0.00,Wunderground v.1.15,2013-05-06 13:57:00,
2013-05-06 07:03:00,48.0,46.1,29.49,West,279,0.0,0.0,93,0.00,,,0.00,Wunderground v.1.15,2013-05-06 14:03:00,
2013-05-06 07:09:00,48.3,46.4,29.50,West,279,0.0,0.0,93,0.00,,,0.00,Wunderground v.1.15,2013-05-06 14:09:00,
2013-05-06 07:15:00,48.5,46.6,29.50,West,279,0.0,0.0,93,0.00,,,0.00,Wunderground v.1.15,2013-05-06 14:15:00,
2013-05-06 07:21:00,48.8,46.9,29.50,West,279,0.0,0.0,93,0.00,,,0.00,Wunderground v.1.15,2013-05-06 14:21:00,
2013-05-06 07:27:00,49.2,47.3,29.50,West,279,0.0,0.0,93,0.00,,,0.00,Wunderground v.1.15,2013-05-06 14:27:00,
2013-05-06 07:33:00,49.5,47.6,29.50,West,279,0.0,0.0,93,0.00,,,0.00,Wunderground v.1.15,2013-05-06 14:33:00,
2013-05-06 07:39:00,49.8,47.6,29.50,West,279,0.0,0.0,92,0.00,,,0.00,Wunderground v.1.15,2013-05-06 14:39:00,
2013-05-06 07:45:00,50.1,47.9,29.50,West,279,0.0,0.0,92,0.00,,,0.00,Wunderground v.1.15,2013-05-06 14:45:00,
2013-05-06 07:51:00,50.4,48.2,29.50,West,279,0.0,0.0,92,0.00,,,0.00,Wunderground v.1.15,2013-05-06 14:51:00,
2013-05-06 07:57:00,50.5,48.3,29.51,West,279,0.0,0.0,92,0.00,,,0.00,Wunderground v.1.15,2013-05-06 14:57:00,
2013-05-06 08:03:00,50.8,48.3,29.51,West,279,0.0,0.0,91,0.00,,,0.00,Wunderground v.1.15,2013-05-06 15:03:00,
2013-05-06 08:09:00,51.1,48.3,29.51,West,279,0.0,0.0,90,0.00,,,0.00,Wunderground v.1.15,2013-05-06 15:09:00,
2013-05-06 08:15:00,51.6,48.8,29.51,West,279,0.0,0.0,90,0.00,,,0.00,Wunderground v.1.15,2013-05-06 15:15:00,
2013-05-06 08:21:00,52.0,48.9,29.51,West,279,0.0,0.0,89,0.00,,,0.00,Wunderground v.1.15,2013-05-06 15:21:00,
2013-05-06 08:27:00,52.3,49.2,29.51,West,279,0.0,0.0,89,0.00,,,0.00,Wunderground v.1.15,2013-05-06 15:27:00,
2013-05-06 08:33:00,52.8,49.3,29.51,West,279,0.0,2.0,88,0.00,,,0.00,Wunderground v.1.15,2013-05-06 15:33:00,
2013-05-06 08:39:00,53.2,49.4,29.51,West,279,0.0,2.0,87,0.00,,,0.00,Wunderground v.1.15,2013-05-06 15:39:00,
2013-05-06 08:45:00,53.5,49.4,29.51,West,279,0.0,0.0,86,0.00,,,0.00,Wunderground v.1.15,2013-05-06 15:45:00,
2013-05-06 08:51:00,54.2,49.8,29.51,West,279,0.0,0.0,85,0.00,,,0.00,Wunderground v.1.15,2013-05-06 15:51:00,
2013-05-06 08:57:00,55.0,50.3,29.51,West,279,0.0,0.0,84,0.00,,,0.00,Wunderground v.1.15,2013-05-06 15:57:00,
2013-05-06 09:03:00,55.7,50.3,29.52,NE,35,0.0,0.0,82,0.00,,,0.00,Wunderground v.1.15,2013-05-06 16:03:00,
2013-05-06 09:09:00,56.5,50.7,29.52,NE,35,0.0,0.0,81,0.00,,,0.00,Wunderground v.1.15,2013-05-06 16:09:00,
2013-05-06 09:15:00,57.3,50.8,29.52,NE,35,0.0,0.0,79,0.00,,,0.00,Wunderground v.1.15,2013-05-06 16:15:00,
2013-05-06 09:21:00,58.1,51.3,29.52,NE,35,0.0,0.0,78,0.00,,,0.00,Wunderground v.1.15,2013-05-06 16:21:00,
2013-05-06 09:27:00,58.7,51.2,29.52,NE,35,0.0,0.0,76,0.00,,,0.00,Wunderground v.1.15,2013-05-06 16:27:00,
2013-05-06 09:33:00,59.3,51.4,29.52,NE,35,0.0,0.0,75,0.00,,,0.00,Wunderground v.1.15,2013-05-06 16:33:00,
2013-05-06 09:39:00,59.9,51.6,29.52,NE,35,0.0,0.0,74,0.00,,,0.00,Wunderground v.1.15,2013-05-06 16:39:00,
2013-05-06 09:45:00,60.2,51.9,29.52,NE,35,0.0,0.0,74,0.00,,,0.00,Wunderground v.1.15,2013-05-06 16:45:00,
2013-05-06 09:51:00,60.7,51.6,29.52,NE,35,0.0,0.0,72,0.00,,,0.00,Wunderground v.1.15,2013-05-06 16:51:00,
2013-05-06 09:57:00,61.3,50.2,29.52,NE,35,0.0,0.0,67,0.00,,,0.00,Wunderground v.1.15,2013-05-06 16:57:00,
2013-05-06 10:03:00,62.0,50.5,29.53,NE,35,0.0,0.0,66,0.00,,,0.00,Wunderground v.1.15,2013-05-06 17:03:00,
2013-05-06 10:09:00,62.4,50.1,29.52,ENE,67,0.0,0.0,64,0.00,,,0.00,Wunderground v.1.15,2013-05-06 17:09:00,
2013-05-06 10:15:00,62.7,49.9,29.53,ENE,67,0.0,0.0,63,0.00,,,0.00,Wunderground v.1.15,2013-05-06 17:15:00,
2013-05-06 10:21:00,63.1,50.7,29.53,ESE,107,0.0,1.0,64,0.00,,,0.00,Wunderground v.1.15,2013-05-06 17:21:00,
2013-05-06 10:27:00,62.9,50.1,29.53,ESE,108,1.0,2.0,63,0.00,,,0.00,Wunderground v.1.15,2013-05-06 17:27:00,
2013-05-06 10:33:00,63.1,50.3,29.53,ESE,108,0.0,0.0,63,0.00,,,0.00,Wunderground v.1.15,2013-05-06 17:33:00,
2013-05-06 10:39:00,63.2,49.5,29.53,ESE,118,0.0,0.0,61,0.00,,,0.00,Wunderground v.1.15,2013-05-06 17:39:00,
2013-05-06 10:45:00,63.2,50.0,29.53,SE,135,0.0,2.0,62,0.00,,,0.00,Wunderground v.1.15,2013-05-06 17:45:00,
2013-05-06 10:51:00,63.4,50.1,29.53,SE,134,0.0,2.0,62,0.00,,,0.00,Wunderground v.1.15,2013-05-06 17:51:00,
2013-05-06 10:57:00,63.7,50.0,29.53,SE,134,0.0,0.0,61,0.00,,,0.00,Wunderground v.1.15,2013-05-06 17:57:00,
2013-05-06 11:03:00,64.0,50.3,29.53,SE,136,1.0,2.0,61,0.00,,,0.00,Wunderground v.1.15,2013-05-06 18:03:00,
2013-05-06 11:09:00,63.9,50.2,29.53,SE,136,1.0,2.0,61,0.00,,,0.00,Wunderground v.1.15,2013-05-06 18:09:00,
2013-05-06 11:15:00,64.2,50.0,29.53,SE,136,0.0,1.0,60,0.00,,,0.00,Wunderground v.1.15,2013-05-06 18:15:00,
2013-05-06 11:21:00,64.7,50.0,29.53,SE,136,0.0,1.0,59,0.00,,,0.00,Wunderground v.1.15,2013-05-06 18:21:00,
2013-05-06 11:27:00,65.0,49.9,29.54,SE,136,0.0,0.0,58,0.00,,,0.00,Wunderground v.1.15,2013-05-06 18:27:00,
2013-05-06 11:33:00,65.2,49.6,29.53,West,261,1.0,3.0,57,0.00,,,0.00,Wunderground v.1.15,2013-05-06 18:33:00,
2013-05-06 11:39:00,64.8,50.1,29.54,SE,134,1.0,3.0,59,0.00,,,0.00,Wunderground v.1.15,2013-05-06 18:39:00,
2013-05-06 11:45:00,65.0,49.9,29.53,SE,130,0.0,0.0,58,0.00,,,0.00,Wunderground v.1.15,2013-05-06 18:45:00,
2013-05-06 11:51:00,65.0,49.9,29.54,ESE,123,0.0,0.0,58,0.00,,,0.00,Wunderground v.1.15,2013-05-06 18:51:00,
2013-05-06 11:57:00,64.8,49.2,29.53,ESE,123,0.0,0.0,57,0.00,,,0.00,Wunderground v.1.15,2013-05-06 18:57:00,
2013-05-06 12:03:00,65.3,50.6,29.53,ESE,123,0.0,0.0,59,0.00,,,0.00,Wunderground v.1.15,2013-05-06 19:03:00,
2013-05-06 12:09:00,65.8,50.1,29.53,ESE,123,0.0,0.0,57,0.00,,,0.00,Wunderground v.1.15,2013-05-06 19:09:00,
2013-05-06 12:15:00,66.1,49.5,29.53,West,281,0.0,3.0,55,0.00,,,0.00,Wunderground v.1.15,2013-05-06 19:15:00,
2013-05-06 12:21:00,65.8,50.6,29.53,WSW,243,1.0,3.0,58,0.00,,,0.00,Wunderground v.1.15,2013-05-06 19:21:00,
2013-05-06 12:27:00,65.3,50.1,29.53,West,281,1.0,2.0,58,0.00,,,0.00,Wunderground v.1.15,2013-05-06 19:27:00,
2013-05-06 12:33:00,64.8,49.7,29.53,West,281,1.0,1.0,58,0.00,,,0.00,Wunderground v.1.15,2013-05-06 19:33:00,
2013-05-06 12:39:00,64.7,49.1,29.53,WSW,258,0.0,1.0,57,0.00,,,0.00,Wunderground v.1.15,2013-05-06 19:39:00,
2013-05-06 12:45:00,65.0,50.8,29.53,WSW,258,0.0,0.0,60,0.00,,,0.00,Wunderground v.1.15,2013-05-06 19:45:00,
2013-05-06 12:51:00,65.2,50.0,29.53,West,259,0.0,1.0,58,0.00,,,0.00,Wunderground v.1.15,2013-05-06 19:51:00,
2013-05-06 12:57:00,65.3,51.1,29.52,SW,229,0.0,4.0,60,0.00,,,0.00,Wunderground v.1.15,2013-05-06 19:57:00,
2013-05-06 13:03:00,65.3,50.6,29.52,SW,227,0.0,0.0,59,0.00,,,0.00,Wunderground v.1.15,2013-05-06 20:03:00,
2013-05-06 13:09:00,65.6,50.4,29.52,SW,227,0.0,0.0,58,0.00,,,0.00,Wunderground v.1.15,2013-05-06 20:09:00,
2013-05-06 13:15:00,65.8,49.7,29.52,SW,227,0.0,0.0,56,0.00,,,0.00,Wunderground v.1.15,2013-05-06 20:15:00,
2013-05-06 13:21:00,66.6,50.4,29.52,SSW,202,0.0,0.0,56,0.00,,,0.00,Wunderground v.1.15,2013-05-06 20:21:00,
2013-05-06 13:27:00,67.4,49.7,29.52,ENE,71,0.0,0.0,53,0.00,,,0.00,Wunderground v.1.15,2013-05-06 20:27:00,
2013-05-06 13:33:00,68.9,50.0,29.52,East,98,0.0,0.0,51,0.00,,,0.00,Wunderground v.1.15,2013-05-06 20:33:00,
2013-05-06 13:39:00,69.3,50.4,29.52,SE,144,0.0,0.0,51,0.00,,,0.00,Wunderground v.1.15,2013-05-06 20:39:00,
2013-05-06 13:45:00,69.1,49.1,29.52,SE,136,0.0,0.0,49,0.00,,,0.00,Wunderground v.1.15,2013-05-06 20:45:00,
2013-05-06 13:51:00,68.6,49.2,29.52,East,100,0.0,0.0,50,0.00,,,0.00,Wunderground v.1.15,2013-05-06 20:51:00,
2013-05-06 13:57:00,68.3,50.0,29.52,NNE,20,0.0,0.0,52,0.00,,,0.00,Wunderground v.1.15,2013-05-06 20:57:00,
2013-05-06 14:03:00,67.9,49.6,29.52,NNE,25,0.0,0.0,52,0.00,,,0.00,Wunderground v.1.15,2013-05-06 21:03:00,
2013-05-06 14:09:00,67.6,51.3,29.52,SE,128,0.0,1.0,56,0.00,,,0.00,Wunderground v.1.15,2013-05-06 21:09:00,
2013-05-06 14:15:00,66.4,51.2,29.52,West,260,2.0,7.0,58,0.00,,,0.00,Wunderground v.1.15,2013-05-06 21:15:00,
2013-05-06 14:21:00,65.3,51.5,29.52,WNW,289,4.0,7.0,61,0.00,,,0.00,Wunderground v.1.15,2013-05-06 21:21:00,
2013-05-06 14:27:00,65.2,51.4,29.52,West,270,3.0,5.0,61,0.00,,,0.00,Wunderground v.1.15,2013-05-06 21:27:00,
2013-05-06 14:33:00,65.2,51.8,29.52,WNW,298,3.0,5.0,62,0.00,,,0.00,Wunderground v.1.15,2013-05-06 21:33:00,
2013-05-06 14:39:00,64.8,51.9,29.52,WNW,284,3.0,5.0,63,0.00,,,0.00,Wunderground v.1.15,2013-05-06 21:39:00,
2013-05-06 14:45:00,64.7,52.2,29.52,WSW,248,2.0,2.0,64,0.00,,,0.00,Wunderground v.1.15,2013-05-06 21:45:00,
2013-05-06 14:51:00,64.3,52.7,29.53,WNW,302,2.0,6.0,66,0.00,,,0.00,Wunderground v.1.15,2013-05-06 21:51:00,
2013-05-06 14:57:00,63.5,51.1,29.53,WNW,284,4.0,10.0,64,0.00,,,0.00,Wunderground v.1.15,2013-05-06 21:57:00,
2013-05-06 15:03:00,63.1,49.4,29.53,NW,325,4.0,4.0,61,0.00,,,0.00,Wunderground v.1.15,2013-05-06 22:03:00,
2013-05-06 15:09:00,62.9,48.8,29.53,WSW,239,4.0,7.0,60,0.00,,,0.00,Wunderground v.1.15,2013-05-06 22:09:00,
2013-05-06 15:15:00,62.7,48.6,29.53,West,274,4.0,4.0,60,0.00,,,0.00,Wunderground v.1.15,2013-05-06 22:15:00,
2013-05-06 15:21:00,62.7,49.5,29.53,NW,317,1.0,4.0,62,0.00,,,0.00,Wunderground v.1.15,2013-05-06 22:21:00,
2013-05-06 15:27:00,62.7,50.3,29.54,ENE,78,0.0,3.0,64,0.00,,,0.00,Wunderground v.1.15,2013-05-06 22:27:00,
2013-05-06 15:33:00,62.1,53.7,29.54,ENE,63,1.0,1.0,74,0.00,,,0.01,Wunderground v.1.15,2013-05-06 22:33:00,
2013-05-06 15:39:00,61.3,54.0,29.54,NE,53,0.0,1.0,77,0.00,,,0.01,Wunderground v.1.15,2013-05-06 22:39:00,
2013-05-06 15:45:00,60.2,54.0,29.54,ENE,65,0.0,0.0,80,0.00,,,0.01,Wunderground v.1.15,2013-05-06 22:45:00,
2013-05-06 15:51:00,59.9,54.7,29.54,ENE,65,0.0,0.0,83,0.04,,,0.02,Wunderground v.1.15,2013-05-06 22:51:00,
2013-05-06 15:57:00,59.8,54.6,29.54,NNE,24,0.0,1.0,83,0.04,,,0.02,Wunderground v.1.15,2013-05-06 22:57:00,
2013-05-06 16:03:00,59.8,55.3,29.53,NNE,24,0.0,0.0,85,0.04,,,0.02,Wunderground v.1.15,2013-05-06 23:03:00,
2013-05-06 16:09:00,60.1,55.6,29.53,NNE,24,0.0,0.0,85,0.00,,,0.02,Wunderground v.1.15,2013-05-06 23:09:00,
2013-05-06 16:15:00,60.2,55.0,29.53,NNE,24,0.0,0.0,83,0.00,,,0.02,Wunderground v.1.15,2013-05-06 23:15:00,
2013-05-06 16:21:00,60.4,55.2,29.53,NNE,24,0.0,0.0,83,0.00,,,0.02,Wunderground v.1.15,2013-05-06 23:21:00,
2013-05-06 16:27:00,60.7,55.2,29.53,NE,47,0.0,2.0,82,0.00,,,0.02,Wunderground v.1.15,2013-05-06 23:27:00,
2013-05-06 16:33:00,61.2,55.0,29.53,NE,47,0.0,0.0,80,0.00,,,0.02,Wunderground v.1.15,2013-05-06 23:33:00,
2013-05-06 16:39:00,61.6,55.0,29.53,NE,47,0.0,0.0,79,0.00,,,0.02,Wunderground v.1.15,2013-05-06 23:39:00,
2013-05-06 16:45:00,62.1,54.4,29.53,NE,47,0.0,0.0,76,0.00,,,0.02,Wunderground v.1.15,2013-05-06 23:45:00,
2013-05-06 16:51:00,62.9,54.9,29.53,NE,47,0.0,0.0,75,0.00,,,0.02,Wunderground v.1.15,2013-05-06 23:51:00,
2013-05-06 16:57:00,62.9,53.7,29.52,WNW,295,0.0,0.0,72,0.00,,,0.02,Wunderground v.1.15,2013-05-06 23:57:00,
2013-05-06 17:03:00,62.7,55.4,29.53,NW,311,0.0,1.0,77,0.00,,,0.02,Wunderground v.1.15,2013-05-07 00:03:00,
2013-05-06 17:09:00,62.6,51.5,29.53,WSW,238,1.0,3.0,67,0.00,,,0.02,Wunderground v.1.15,2013-05-07 00:09:00,
2013-05-06 17:15:00,62.7,52.4,29.53,West,269,2.0,3.0,69,0.00,,,0.02,Wunderground v.1.15,2013-05-07 00:15:00,
2013-05-06 17:21:00,62.6,51.1,29.53,SW,223,2.0,5.0,66,0.00,,,0.02,Wunderground v.1.15,2013-05-07 00:21:00,
2013-05-06 17:27:00,62.6,51.5,29.54,NW,317,3.0,4.0,67,0.00,,,0.02,Wunderground v.1.15,2013-05-07 00:27:00,
2013-05-06 17:33:00,62.4,50.9,29.54,West,271,3.0,3.0,66,0.00,,,0.02,Wunderground v.1.15,2013-05-07 00:33:00,
2013-05-06 17:39:00,62.4,50.9,29.54,WNW,293,3.0,3.0,66,0.00,,,0.02,Wunderground v.1.15,2013-05-07 00:39:00,
2013-05-06 17:45:00,62.3,50.4,29.54,WSW,240,2.0,3.0,65,0.00,,,0.02,Wunderground v.1.15,2013-05-07 00:45:00,
2013-05-06 17:51:00,62.0,50.9,29.54,WNW,290,3.0,5.0,67,0.00,,,0.02,Wunderground v.1.15,2013-05-07 00:51:00,
2013-05-06 17:57:00,61.8,50.3,29.54,WNW,295,2.0,3.0,66,0.00,,,0.02,Wunderground v.1.15,2013-05-07 00:57:00,
2013-05-06 18:03:00,61.8,50.7,29.54,WNW,290,1.0,1.0,67,0.00,,,0.02,Wunderground v.1.15,2013-05-07 01:03:00,
2013-05-06 18:09:00,61.8,51.5,29.54,WNW,284,1.0,1.0,69,0.00,,,0.02,Wunderground v.1.15,2013-05-07 01:09:00,
2013-05-06 18:15:00,61.5,50.8,29.54,NNW,336,2.0,4.0,68,0.00,,,0.02,Wunderground v.1.15,2013-05-07 01:15:00,
2013-05-06 18:21:00,61.3,51.8,29.54,West,275,1.0,4.0,71,0.00,,,0.02,Wunderground v.1.15,2013-05-07 01:21:00,
2013-05-06 18:27:00,61.2,51.3,29.54,NW,310,0.0,1.0,70,0.00,,,0.02,Wunderground v.1.15,2013-05-07 01:27:00,
2013-05-06 18:33:00,61.0,51.1,29.54,WNW,293,1.0,1.0,70,0.00,,,0.02,Wunderground v.1.15,2013-05-07 01:33:00,
2013-05-06 18:39:00,60.7,50.9,29.54,NW,316,1.0,3.0,70,0.00,,,0.02,Wunderground v.1.15,2013-05-07 01:39:00,
2013-05-06 18:45:00,60.5,51.4,29.54,NW,316,1.0,1.0,72,0.00,,,0.02,Wunderground v.1.15,2013-05-07 01:45:00,
2013-05-06 18:51:00,60.5,51.0,29.54,NW,319,0.0,1.0,71,0.00,,,0.02,Wunderground v.1.15,2013-05-07 01:51:00,
2013-05-06 18:57:00,60.4,50.6,29.54,NNE,24,1.0,1.0,70,0.00,,,0.02,Wunderground v.1.15,2013-05-07 01:57:00,
2013-05-06 19:03:00,60.2,50.8,29.54,WNW,295,1.0,1.0,71,0.00,,,0.02,Wunderground v.1.15,2013-05-07 02:03:00,
2013-05-06 19:09:00,60.1,50.3,29.54,NNW,348,0.0,2.0,70,0.00,,,0.02,Wunderground v.1.15,2013-05-07 02:09:00,
2013-05-06 19:15:00,59.9,50.5,29.54,WNW,292,0.0,0.0,71,0.00,,,0.02,Wunderground v.1.15,2013-05-07 02:15:00,
2013-05-06 19:21:00,59.8,50.4,29.54,WNW,297,0.0,1.0,71,0.00,,,0.02,Wunderground v.1.15,2013-05-07 02:21:00,
2013-05-06 19:27:00,59.5,50.5,29.54,WNW,298,0.0,0.0,72,0.00,,,0.02,Wunderground v.1.15,2013-05-07 02:27:00,
2013-05-06 19:33:00,59.2,50.5,29.55,WNW,298,0.0,0.0,73,0.00,,,0.02,Wunderground v.1.15,2013-05-07 02:33:00,
2013-05-06 19:39:00,59.0,50.7,29.55,WNW,298,0.0,0.0,74,0.00,,,0.02,Wunderground v.1.15,2013-05-07 02:39:00,
2013-05-06 19:45:00,58.9,51.0,29.55,WNW,298,0.0,0.0,75,0.00,,,0.02,Wunderground v.1.15,2013-05-07 02:45:00,
2013-05-06 19:51:00,58.6,50.7,29.55,WNW,291,0.0,2.0,75,0.00,,,0.02,Wunderground v.1.15,2013-05-07 02:51:00,
2013-05-06 19:57:00,58.3,50.4,29.55,WNW,291,0.0,0.0,75,0.00,,,0.02,Wunderground v.1.15,2013-05-07 02:57:00,
2013-05-06 20:03:00,57.8,50.3,29.56,WNW,291,0.0,0.0,76,0.00,,,0.02,Wunderground v.1.15,2013-05-07 03:03:00,
2013-05-06 20:08:00,54.2,49.8,29.59,WNW,291,0.0,0.0,85,0.00,,,0.02,Wunderground v.1.15,2013-05-07 03:08:00,
2013-05-06 20:09:00,57.5,50.7,29.56,WNW,291,0.0,0.0,78,0.00,,,0.02,Wunderground v.1.15,2013-05-07 03:09:00,
2013-05-06 20:10:00,54.1,49.7,29.59,WNW,291,0.0,0.0,85,0.00,,,0.02,Wunderground v.1.15,2013-05-07 03:10:00,
2013-05-06 20:12:00,53.9,49.8,29.59,WNW,291,0.0,0.0,86,0.00,,,0.02,Wunderground v.1.15,2013-05-07 03:12:00,
2013-05-06 20:14:00,53.8,49.7,29.59,WNW,291,0.0,0.0,86,0.00,,,0.02,Wunderground v.1.15,2013-05-07 03:14:00,
2013-05-06 20:15:00,57.2,50.4,29.57,WNW,291,0.0,0.0,78,0.00,,,0.02,Wunderground v.1.15,2013-05-07 03:15:00,
2013-05-06 20:16:00,53.6,49.8,29.59,WNW,291,0.0,0.0,87,0.00,,,0.02,Wunderground v.1.15,2013-05-07 03:16:00,
2013-05-06 20:18:00,53.5,49.7,29.59,WNW,291,0.0,0.0,87,0.00,,,0.02,Wunderground v.1.15,2013-05-07 03:18:00,
2013-05-06 20:20:00,53.5,49.7,29.59,WNW,291,0.0,0.0,87,0.00,,,0.02,Wunderground v.1.15,2013-05-07 03:20:00,
2013-05-06 20:21:00,56.9,50.5,29.57,WNW,291,0.0,0.0,79,0.00,,,0.02,Wunderground v.1.15,2013-05-07 03:21:00,
2013-05-06 20:22:00,53.3,49.5,29.59,WNW,291,0.0,0.0,87,0.00,,,0.02,Wunderground v.1.15,2013-05-07 03:22:00,
2013-05-06 20:24:00,53.3,49.5,29.59,WNW,291,0.0,0.0,87,0.00,,,0.02,Wunderground v.1.15,2013-05-07 03:24:00,
2013-05-06 20:26:00,53.3,49.5,29.59,WNW,291,0.0,0.0,87,0.00,,,0.02,Wunderground v.1.15,2013-05-07 03:26:00,
2013-05-06 20:27:00,56.5,50.7,29.57,WNW,291,0.0,0.0,81,0.00,,,0.02,Wunderground v.1.15,2013-05-07 03:27:00,
2013-05-06 20:28:00,53.2,49.4,29.60,WNW,291,0.0,0.0,87,0.00,,,0.02,Wunderground v.1.15,2013-05-07 03:28:00,
2013-05-06 20:30:00,53.2,49.7,29.59,WNW,291,0.0,0.0,88,0.00,,,0.02,Wunderground v.1.15,2013-05-07 03:30:00,
2013-05-06 20:32:00,53.2,49.7,29.60,WNW,291,0.0,0.0,88,0.00,,,0.02,Wunderground v.1.15,2013-05-07 03:32:00,
2013-05-06 20:33:00,56.2,50.4,29.57,WNW,291,0.0,0.0,81,0.00,,,0.02,Wunderground v.1.15,2013-05-07 03:33:00,
2013-05-06 20:34:00,53.1,49.6,29.60,WNW,291,0.0,0.0,88,0.00,,,0.02,Wunderground v.1.15,2013-05-07 03:34:00,
2013-05-06 20:36:00,53.1,49.6,29.60,WNW,291,0.0,0.0,88,0.00,,,0.02,Wunderground v.1.15,2013-05-07 03:36:00,
2013-05-06 20:38:00,53.1,49.6,29.60,WNW,291,0.0,0.0,88,0.00,,,0.02,Wunderground v.1.15,2013-05-07 03:38:00,
2013-05-06 20:39:00,55.7,50.3,29.58,WNW,291,0.0,0.0,82,0.00,,,0.02,Wunderground v.1.15,2013-05-07 03:39:00,
2013-05-06 20:40:00,53.2,49.7,29.60,WNW,291,0.0,0.0,88,0.00,,,0.02,Wunderground v.1.15,2013-05-07 03:40:00,
2013-05-06 20:42:00,53.2,50.0,29.60,WNW,291,0.0,0.0,89,0.00,,,0.02,Wunderground v.1.15,2013-05-07 03:42:00,
2013-05-06 20:44:00,53.2,50.0,29.60,WNW,291,0.0,0.0,89,0.00,,,0.02,Wunderground v.1.15,2013-05-07 03:44:00,
2013-05-06 20:45:00,55.4,50.0,29.58,WNW,291,0.0,0.0,82,0.00,,,0.02,Wunderground v.1.15,2013-05-07 03:45:00,
2013-05-06 20:46:00,53.2,50.0,29.60,WNW,291,0.0,0.0,89,0.00,,,0.02,Wunderground v.1.15,2013-05-07 03:46:00,
2013-05-06 20:48:00,53.2,50.0,29.60,WNW,291,0.0,0.0,89,0.00,,,0.02,Wunderground v.1.15,2013-05-07 03:48:00,
2013-05-06 20:50:00,53.2,50.0,29.60,WNW,291,0.0,0.0,89,0.00,,,0.02,Wunderground v.1.15,2013-05-07 03:50:00,
2013-05-06 20:51:00,55.0,49.9,29.58,WNW,291,0.0,0.0,83,0.00,,,0.02,Wunderground v.1.15,2013-05-07 03:51:00,
2013-05-06 20:52:00,53.2,50.0,29.60,WNW,291,0.0,0.0,89,0.00,,,0.02,Wunderground v.1.15,2013-05-07 03:52:00,
2013-05-06 20:54:00,53.2,50.0,29.60,WNW,291,0.0,0.0,89,0.00,,,0.02,Wunderground v.1.15,2013-05-07 03:54:00,
2013-05-06 20:56:00,53.2,50.0,29.61,WNW,291,0.0,0.0,89,0.00,,,0.02,Wunderground v.1.15,2013-05-07 03:56:00,
2013-05-06 20:57:00,54.5,50.1,29.58,WNW,291,0.0,0.0,85,0.00,,,0.02,Wunderground v.1.15,2013-05-07 03:57:00,
2013-05-06 20:58:00,53.2,50.3,29.61,WNW,291,0.0,0.0,90,0.00,,,0.02,Wunderground v.1.15,2013-05-07 03:58:00,
2013-05-06 21:00:00,53.3,50.4,29.61,WNW,291,0.0,0.0,90,0.00,,,0.02,Wunderground v.1.15,2013-05-07 04:00:00,
2013-05-06 21:02:00,53.5,50.6,29.61,WNW,291,0.0,0.0,90,0.00,,,0.02,Wunderground v.1.15,2013-05-07 04:02:00,
2013-05-06 21:04:00,53.5,50.6,29.61,WNW,291,0.0,0.0,90,0.00,,,0.02,Wunderground v.1.15,2013-05-07 04:04:00,
2013-05-06 21:06:00,53.5,50.6,29.61,WNW,291,0.0,0.0,90,0.00,,,0.02,Wunderground v.1.15,2013-05-07 04:06:00,
2013-05-06 21:08:00,53.6,50.7,29.61,WNW,291,0.0,0.0,90,0.00,,,0.02,Wunderground v.1.15,2013-05-07 04:08:00,
2013-05-06 21:10:00,53.6,50.7,29.61,WNW,291,0.0,0.0,90,0.00,,,0.02,Wunderground v.1.15,2013-05-07 04:10:00,
2013-05-06 21:12:00,53.6,50.7,29.61,WNW,291,0.0,0.0,90,0.00,,,0.02,Wunderground v.1.15,2013-05-07 04:12:00,
2013-05-06 21:14:00,53.6,50.7,29.61,WNW,291,0.0,0.0,90,0.00,,,0.02,Wunderground v.1.15,2013-05-07 04:14:00,
2013-05-06 21:16:00,53.6,50.7,29.61,WNW,291,0.0,0.0,90,0.00,,,0.02,Wunderground v.1.15,2013-05-07 04:16:00,
2013-05-06 21:18:00,53.8,50.9,29.61,WNW,291,0.0,0.0,90,0.00,,,0.02,Wunderground v.1.15,2013-05-07 04:18:00,
2013-05-06 21:20:00,53.6,50.7,29.61,WNW,291,0.0,0.0,90,0.00,,,0.02,Wunderground v.1.15,2013-05-07 04:20:00,
2013-05-06 21:22:00,53.6,50.7,29.61,WNW,291,0.0,0.0,90,0.00,,,0.02,Wunderground v.1.15,2013-05-07 04:22:00,
2013-05-06 21:24:00,53.6,50.7,29.61,WNW,291,0.0,0.0,90,0.00,,,0.02,Wunderground v.1.15,2013-05-07 04:24:00,
2013-05-06 21:26:00,53.6,50.7,29.61,WNW,291,0.0,0.0,90,0.00,,,0.02,Wunderground v.1.15,2013-05-07 04:26:00,
2013-05-06 21:28:00,53.6,50.7,29.61,WNW,291,0.0,0.0,90,0.00,,,0.02,Wunderground v.1.15,2013-05-07 04:28:00,
2013-05-06 21:30:00,53.5,50.6,29.61,WNW,291,0.0,0.0,90,0.00,,,0.02,Wunderground v.1.15,2013-05-07 04:30:00,
2013-05-06 21:32:00,53.5,50.6,29.61,WNW,291,0.0,0.0,90,0.00,,,0.02,Wunderground v.1.15,2013-05-07 04:32:00,
2013-05-06 21:34:00,53.5,50.6,29.61,WNW,291,0.0,0.0,90,0.00,,,0.02,Wunderground v.1.15,2013-05-07 04:34:00,
2013-05-06 21:36:00,53.5,50.6,29.61,WNW,291,0.0,0.0,90,0.00,,,0.02,Wunderground v.1.15,2013-05-07 04:36:00,
2013-05-06 21:38:00,53.5,50.6,29.61,WNW,291,0.0,0.0,90,0.00,,,0.02,Wunderground v.1.15,2013-05-07 04:38:00,
2013-05-06 21:40:00,53.5,50.6,29.61,WNW,291,0.0,0.0,90,0.00,,,0.02,Wunderground v.1.15,2013-05-07 04:40:00,
2013-05-06 21:42:00,53.5,50.6,29.61,WNW,291,0.0,0.0,90,0.00,,,0.02,Wunderground v.1.15,2013-05-07 04:42:00,
2013-05-06 21:44:00,53.5,50.6,29.62,WNW,291,0.0,0.0,90,0.00,,,0.02,Wunderground v.1.15,2013-05-07 04:44:00,
2013-05-06 21:46:00,53.5,50.6,29.62,WNW,291,0.0,0.0,90,0.00,,,0.02,Wunderground v.1.15,2013-05-07 04:46:00,
2013-05-06 21:48:00,53.5,50.6,29.62,WNW,291,0.0,0.0,90,0.00,,,0.02,Wunderground v.1.15,2013-05-07 04:48:00,
2013-05-06 21:50:00,53.5,50.6,29.62,WNW,291,0.0,0.0,90,0.00,,,0.02,Wunderground v.1.15,2013-05-07 04:50:00,
2013-05-06 21:52:00,53.5,50.6,29.62,WNW,291,0.0,0.0,90,0.00,,,0.02,Wunderground v.1.15,2013-05-07 04:52:00,
2013-05-06 21:54:00,53.5,50.6,29.62,WNW,291,0.0,0.0,90,0.00,,,0.02,Wunderground v.1.15,2013-05-07 04:54:00,
2013-05-06 21:56:00,53.5,50.9,29.62,WNW,291,0.0,0.0,91,0.00,,,0.02,Wunderground v.1.15,2013-05-07 04:56:00,
2013-05-06 21:58:00,53.5,50.9,29.62,WNW,291,0.0,0.0,91,0.00,,,0.02,Wunderground v.1.15,2013-05-07 04:58:00,
2013-05-06 22:00:00,53.5,50.9,29.62,WNW,291,0.0,0.0,91,0.00,,,0.02,Wunderground v.1.15,2013-05-07 05:00:00,
2013-05-06 22:02:00,53.5,50.9,29.62,WNW,291,0.0,0.0,91,0.00,,,0.02,Wunderground v.1.15,2013-05-07 05:02:00,
2013-05-06 22:04:00,53.5,50.9,29.62,WNW,291,0.0,0.0,91,0.00,,,0.02,Wunderground v.1.15,2013-05-07 05:04:00,
2013-05-06 22:06:00,53.5,50.9,29.62,WNW,291,0.0,0.0,91,0.00,,,0.02,Wunderground v.1.15,2013-05-07 05:06:00,
2013-05-06 22:08:00,53.6,51.0,29.62,WNW,291,0.0,0.0,91,0.00,,,0.02,Wunderground v.1.15,2013-05-07 05:08:00,
2013-05-06 22:10:00,53.6,51.0,29.62,WNW,291,0.0,0.0,91,0.00,,,0.02,Wunderground v.1.15,2013-05-07 05:10:00,
2013-05-06 22:12:00,53.5,50.6,29.62,WNW,291,0.0,0.0,90,0.00,,,0.02,Wunderground v.1.15,2013-05-07 05:12:00,
2013-05-06 22:14:00,53.5,50.6,29.62,WNW,291,0.0,0.0,90,0.00,,,0.02,Wunderground v.1.15,2013-05-07 05:14:00,
2013-05-06 22:16:00,53.5,50.9,29.62,WNW,291,0.0,0.0,91,0.00,,,0.02,Wunderground v.1.15,2013-05-07 05:16:00,
2013-05-06 22:18:00,53.5,50.9,29.62,WNW,291,0.0,0.0,91,0.00,,,0.02,Wunderground v.1.15,2013-05-07 05:18:00,
2013-05-06 22:20:00,53.5,50.9,29.62,WNW,291,0.0,0.0,91,0.00,,,0.02,Wunderground v.1.15,2013-05-07 05:20:00,
2013-05-06 22:22:00,53.5,50.9,29.62,WNW,291,0.0,0.0,91,0.00,,,0.02,Wunderground v.1.15,2013-05-07 05:22:00,
2013-05-06 22:24:00,53.3,50.7,29.62,WNW,291,0.0,0.0,91,0.00,,,0.02,Wunderground v.1.15,2013-05-07 05:24:00,
2013-05-06 22:26:00,53.3,50.7,29.62,WNW,291,0.0,0.0,91,0.00,,,0.02,Wunderground v.1.15,2013-05-07 05:26:00,
2013-05-06 22:28:00,53.3,50.7,29.62,WNW,291,0.0,0.0,91,0.00,,,0.02,Wunderground v.1.15,2013-05-07 05:28:00,
2013-05-06 22:30:00,53.2,50.6,29.62,WNW,291,0.0,0.0,91,0.00,,,0.02,Wunderground v.1.15,2013-05-07 05:30:00,
2013-05-06 22:32:00,53.2,50.6,29.62,WNW,291,0.0,0.0,91,0.00,,,0.02,Wunderground v.1.15,2013-05-07 05:32:00,
2013-05-06 22:34:00,53.1,50.5,29.63,WNW,291,0.0,0.0,91,0.00,,,0.02,Wunderground v.1.15,2013-05-07 05:34:00,
2013-05-06 22:36:00,53.1,50.5,29.63,WNW,291,0.0,0.0,91,0.00,,,0.02,Wunderground v.1.15,2013-05-07 05:36:00,
2013-05-06 22:38:00,53.1,50.5,29.63,WNW,291,0.0,0.0,91,0.00,,,0.02,Wunderground v.1.15,2013-05-07 05:38:00,
2013-05-06 22:40:00,52.9,50.3,29.63,WNW,291,0.0,0.0,91,0.00,,,0.02,Wunderground v.1.15,2013-05-07 05:40:00,
2013-05-06 22:42:00,52.9,50.3,29.62,WNW,291,0.0,0.0,91,0.00,,,0.02,Wunderground v.1.15,2013-05-07 05:42:00,
2013-05-06 22:44:00,52.9,50.3,29.62,WNW,291,0.0,0.0,91,0.00,,,0.02,Wunderground v.1.15,2013-05-07 05:44:00,
2013-05-06 22:46:00,52.9,50.3,29.62,WNW,291,0.0,0.0,91,0.00,,,0.02,Wunderground v.1.15,2013-05-07 05:46:00,
2013-05-06 22:48:00,52.9,50.6,29.63,WNW,291,0.0,0.0,92,0.00,,,0.02,Wunderground v.1.15,2013-05-07 05:48:00,
2013-05-06 22:50:00,52.9,50.6,29.62,WNW,291,0.0,0.0,92,0.00,,,0.02,Wunderground v.1.15,2013-05-07 05:50:00,
2013-05-06 22:52:00,52.9,50.6,29.63,WNW,291,0.0,0.0,92,0.00,,,0.02,Wunderground v.1.15,2013-05-07 05:52:00,
2013-05-06 22:56:00,52.9,50.6,29.63,WNW,291,0.0,0.0,92,0.00,,,0.02,Wunderground v.1.15,2013-05-07 05:56:00,
2013-05-06 22:58:00,52.8,50.5,29.63,WNW,291,0.0,0.0,92,0.00,,,0.02,Wunderground v.1.15,2013-05-07 05:58:00,
2013-05-06 23:00:00,52.8,50.5,29.63,WNW,291,0.0,0.0,92,0.00,,,0.02,Wunderground v.1.15,2013-05-07 06:00:00,
2013-05-06 23:02:00,52.8,50.5,29.62,WNW,291,0.0,0.0,92,0.00,,,0.02,Wunderground v.1.15,2013-05-07 06:02:00,
2013-05-06 23:06:00,52.6,50.3,29.63,WNW,291,0.0,0.0,92,0.00,,,0.00,Wunderground v.1.15,2013-05-07 06:06:00,
2013-05-06 23:10:00,52.6,50.3,29.63,WNW,291,0.0,0.0,92,0.00,,,0.00,Wunderground v.1.15,2013-05-07 06:10:00,
2013-05-06 23:12:00,52.6,50.3,29.63,WNW,291,0.0,0.0,92,0.00,,,0.00,Wunderground v.1.15,2013-05-07 06:12:00,
2013-05-06 23:14:00,52.6,50.3,29.63,WNW,291,0.0,0.0,92,0.00,,,0.00,Wunderground v.1.15,2013-05-07 06:14:00,
2013-05-06 23:22:00,52.6,50.3,29.63,WNW,291,0.0,0.0,92,0.00,,,0.00,Wunderground v.1.15,2013-05-07 06:22:00,
2013-05-06 23:24:00,52.6,50.3,29.62,WNW,291,0.0,0.0,92,0.00,,,0.00,Wunderground v.1.15,2013-05-07 06:24:00,
2013-05-06 23:26:00,52.6,50.3,29.63,WNW,291,0.0,0.0,92,0.00,,,0.00,Wunderground v.1.15,2013-05-07 06:26:00,
2013-05-06 23:30:00,52.6,50.3,29.63,WNW,291,0.0,0.0,92,0.00,,,0.00,Wunderground v.1.15,2013-05-07 06:30:00,
2013-05-06 23:32:00,52.6,50.3,29.63,WNW,291,0.0,0.0,92,0.00,,,0.00,Wunderground v.1.15,2013-05-07 06:32:00,
2013-05-06 23:38:00,52.5,50.2,29.62,WNW,291,0.0,0.0,92,0.00,,,0.00,Wunderground v.1.15,2013-05-07 06:38:00,
2013-05-06 23:42:00,52.5,50.2,29.62,WNW,291,0.0,0.0,92,0.00,,,0.00,Wunderground v.1.15,2013-05-07 06:42:00,
2013-05-06 23:44:00,52.5,50.2,29.62,WNW,291,0.0,0.0,92,0.00,,,0.00,Wunderground v.1.15,2013-05-07 06:44:00,
2013-05-06 23:47:00,52.9,50.6,29.63,WNW,291,0.0,0.0,92,0.00,,,0.02,Wunderground v.1.15,2013-05-07 06:47:00,
2013-05-06 23:48:00,52.3,50.0,29.62,WNW,291,0.0,0.0,92,0.00,,,0.00,Wunderground v.1.15,2013-05-07 06:48:00,
2013-05-06 23:57:00,52.8,50.5,29.62,WNW,291,0.0,0.0,92,0.00,,,0.02,Wunderground v.1.15,2013-05-07 06:57:00,